Curacao, Curacao

9:42 PM AST on August 17, 2017 (GMT -0400)
Willemstad-Hato International

Weather History for TNCC - March, 2014

Change the Weather History Date:

Sunday, March 9, 2014

  Actual Average Record
Temperature  
Mean Temperature 80 °F -  
Max Temperature 86 °F 85 °F 89 °F (2005)
Min Temperature 75 °F 75 °F 73 °F (2011)
Cooling Degree Days 16    
Growing Degree Days 30 (Base 50)    
Moisture  
Dew Point 71 °F    
Average Humidity 72    
Maximum Humidity 83    
Minimum Humidity 51    
Precipitation  
Precipitation 0.00 in 0.02 in - ()
Sea Level Pressure  
Sea Level Pressure 29.96 in    
Wind  
Wind Speed 9 mph ()    
Max Wind Speed 16 mph    
Max Gust Speed -    
Visibility 7.5 miles    
Events      
Averages and records for this station are not official NWS values.
T = Trace of Precipitation, MM = Missing Value Source: Averaged Metar Reports

Daily Weather History Graph

Daily Weather History Graph

Search for Another Location

Airport or City:

Trip Planner

Search our weather history database for the weather conditions in past years. The results will help you decide how hot, cold, wet, or windy it might be!

Date:

Astronomy

Mar. 09, 2014 Rise Set
Actual Time 6:46 AM AST 6:46 PM AST
Civil Twilight 6:25 AM AST 7:07 PM AST
Nautical Twilight 6:01 AM AST 7:31 PM AST
Astronomical Twilight 5:36 AM AST 7:56 PM AST
Moon 1:17 PM AST (3/9) 1:27 AM AST (3/9)
Length of Visible Light 12h 41m
Length of Day
11h 59m
First Quarter, 61% of the Moon is Illuminated
Mar 9
First Quarter
Mar 16
Full
Mar 23
Last Quarter
Mar 30
New
Apr 7
First Quarter

Hourly Weather History & Observations

Time (AST) Temp. Heat Index Dew Point Humidity Pressure Visibility Wind Dir Wind Speed Gust Speed Precip Events Conditions
12:00 AM 78.8 °F - 73.4 °F 83% 29.98 in 6.2 mi East 9.2 mph - N/A   Scattered Clouds
1:00 AM 77.0 °F - 71.6 °F 83% 29.98 in 6.2 mi East 10.4 mph - N/A   Scattered Clouds
2:00 AM 78 °F - 71 °F 75% 29.96 in 14 mi East 10.4 mph - -   Partly Cloudy
2:00 AM 77.0 °F - 71.6 °F 83% 29.95 in 6.2 mi East 10.4 mph - N/A   Scattered Clouds
3:00 AM 77.0 °F - 71.6 °F 83% 29.95 in 6.2 mi East 9.2 mph - N/A   Scattered Clouds
4:00 AM 77.0 °F - 71.6 °F 83% 29.92 in 6.2 mi East 8.1 mph - N/A   Scattered Clouds
5:00 AM 77 °F - 72 °F 80% 29.95 in 14 mi East 6.9 mph - -   Scattered Clouds
5:00 AM 77.0 °F - 71.6 °F 83% 29.95 in 6.2 mi East 6.9 mph - N/A   Scattered Clouds
6:00 AM 77.0 °F - 71.6 °F 83% 29.95 in 6.2 mi ESE 8.1 mph - N/A   Partly Cloudy
7:00 AM 75.2 °F - 69.8 °F 83% 29.98 in 6.2 mi SE 5.8 mph - N/A   Partly Cloudy
8:00 AM 79 °F - 71 °F 71% 30.01 in 16 mi East 10.4 mph - -   Scattered Clouds
8:00 AM 80.6 °F 84.6 °F 71.6 °F 74% 30.01 in 6.2 mi East 10.4 mph - N/A   Partly Cloudy
9:00 AM 82.4 °F 87.2 °F 71.6 °F 70% 30.01 in 6.2 mi East 10.4 mph - N/A   Partly Cloudy
10:00 AM 82.4 °F 87.2 °F 71.6 °F 70% 30.01 in 6.2 mi East 10.4 mph - N/A   Scattered Clouds
11:00 AM 84 °F - 71 °F 58% 30.02 in 16 mi East 9.2 mph - -   Partly Cloudy
11:00 AM 84.2 °F 89.6 °F 71.6 °F 66% 30.01 in 6.2 mi East 9.2 mph - N/A   Scattered Clouds
12:00 PM 86.0 °F 91.8 °F 71.6 °F 62% 29.98 in 6.2 mi East 9.2 mph - N/A   Scattered Clouds
1:00 PM 86.0 °F 91.8 °F 71.6 °F 62% 29.98 in 6.2 mi East 11.5 mph - N/A   Partly Cloudy
2:00 PM 86 °F - 70 °F 51% 29.95 in 25 mi East 16.1 mph - -   Partly Cloudy
2:00 PM 86.0 °F 91.8 °F 71.6 °F 62% 29.95 in 6.2 mi East 11.5 mph - N/A   Scattered Clouds
3:00 PM 86.0 °F 91.8 °F 71.6 °F 62% 29.92 in 6.2 mi East 10.4 mph - N/A   Partly Cloudy
4:00 PM 84.2 °F 89.6 °F 71.6 °F 66% 29.89 in 6.2 mi East 9.2 mph - N/A   Scattered Clouds
5:00 PM 83 °F - 71 °F 58% 29.91 in 25 mi East 8.1 mph - -   Partly Cloudy
5:00 PM 82.4 °F 87.2 °F 71.6 °F 70% 29.92 in 6.2 mi East 9.2 mph - N/A   Scattered Clouds
6:00 PM 80.6 °F 84.6 °F 71.6 °F 74% 29.92 in 6.2 mi East 9.2 mph - N/A   Scattered Clouds
7:00 PM 78.8 °F - 69.8 °F 74% 29.92 in 6.2 mi East 10.4 mph - N/A   Scattered Clouds
8:00 PM 79 °F - 71 °F 70% 29.95 in 25 mi East 11.5 mph - -   Scattered Clouds
8:00 PM 78.8 °F - 71.6 °F 78% 29.95 in 6.2 mi East 11.5 mph - N/A   Partly Cloudy
9:00 PM 78.8 °F - 69.8 °F 74% 29.95 in 6.2 mi East 10.4 mph - N/A   Partly Cloudy
10:00 PM 78.8 °F - 71.6 °F 78% 29.98 in 6.2 mi East 10.4 mph - N/A   Partly Cloudy
11:00 PM 78 °F - 70 °F 71%  in 25 mi East 9.2 mph - -   Scattered Clouds
11:00 PM 78.8 °F - 69.8 °F 74% 29.98 in 6.2 mi East 9.2 mph - N/A   Partly Cloudy